Location: ČR
(50.0000°N, 15.0000°E)
Time: 19:54:49
(UTC+00:00)

O/OREOS (USA 219) - Visible Passes

Search period start: 09 August 2022 00:00
Search period end: 19 August 2022 00:00
Orbit: 621 x 646 km, 72.0° (Epoch: 22 May)

Date Brightness Start Highest point End Pass type
(mag) Time Alt. Az. Time Alt. Az. Time Alt. Az.
14 Aug ? 03:09:05 10° ESE 03:09:45 10° E 03:10:25 10° E visible
17 Aug ? 02:34:57 10° ESE 02:36:29 12° E 02:38:01 10° ENE visible
18 Aug ? 02:54:30 10° SSE 02:58:08 23° ESE 03:01:45 10° NE visible
